STARLINK-31029, 58712

Orbit data source: Space-Track

STARLINK-31029, 58712 is a payload satellite owned by SpaceX/Seattle (US) in LEO that was launched on Wed, 03 Jan 2024 UTC via an FALCON 9 launch vehicle from the Air Force Western Test Range (AFWTR). Payload-class satellites include a variety of spacecraft equipped with specific instruments for various scientific and technological missions. These include communications satellites like Starlink; space stations such as the ISS; scientific satellites like the Hubble; Earth observation satellites from companies like Planet Labs, Umbra, and HawkEye 360; GPS; miniature CubeSats for education and research; and military/defense satellites.

Loading next visibility...
Identifier
58712, 2024-002H
Orbit
LEO
Country
Flag of USUS
Related business
Manufacturer
SpaceX/Seattle
Mission
Operational Commercial Communications
Bus & Motor
STARLINK V2M, Unknown motor
Mass
730 kg wet, ~700 kg dry
Launch date (UTC)
2024-01-03 (2 years ago)
Launch vehicle
FALCON 9
Launch site
Air Force Western Test Range (AFWTR)
Object type
Payload
Rocket body
Debris
Shape & HBR
Box + 2 Pan, 17.7 m
Radar Cross Section
33.884 m², Large (>1 m²)

Expand to show TLE details & history
Last TLE update: 3 days ago

TLE from 3 days ago
0 STARLINK-31029
1 58712U 24002H   26170.55375274 -.00000676  00000-0 -10701-4 0  9999
2 58712  53.1606 116.6142 0001520 101.1402 258.9769 15.30194352137611
Epoch: 2026-06-19T13:17Z
TLE epoch observation values (Epoch: 2026-06-19T13:17:24.236Z)
Latitude
-0.00009°
Longitude
9.48208°
Altitude
476.331 km
Speed
7.629 km/s
True Right ascension
07h 46m 27s
True Declination
0° 00' 00"
Sunlit
Object was in daylight at epoch
Visualization orbit readout
Latitude
Unknown
Longitude
Unknown
Altitude
Unknown
Speed
Unknown
Apparent Right ascension
Unknown
Apparent Declination
Unknown
Sunlit
N/A
Visualization observer readout
Local Sidereal Time
23:19:53
Azimuth
Unknown
Elevation
Unknown
Doppler factor
Unknown
Orbital elements
Apogee altitude
476.53 km
Perigee altitude
474.447 km
Semi-major axis
6,853.625 km
Eccentricity
0.00015
Inclination
53.1606°
RAAN
116.6142°
Arg. of periapsis
101.1402°
True anomaly
258.9598°
Mean anomaly
258.9769°
Eccentric anomaly
258.96835°
Mean motion
3.82527 °/min
Orbital period
94.11 mins
BSTAR
-0.000010701
Loading maneuver chart data...
Computing Atmospheric mass density...
Loading historical data...
Loading historical data...
Loading historical data...
Loading historical data...
Loading historical data...
Loading historical data...
Loading historical data...

Documentation

Showing up to 5 results
|